TimeAKDT,TemperatureF,Dew PointF,Humidity,Sea Level PressureIn,VisibilityMPH,Wind Direction,Wind SpeedMPH,Gust SpeedMPH,PrecipitationIn,Events,Conditions,WindDirDegrees,DateUTC
12:53 AM,36.0,30.9,82,29.86,10.0,East,3.5,-,N/A,,Mostly Cloudy,80,2013-10-03 08:53:00
1:53 AM,34.0,30.0,85,29.86,10.0,Calm,Calm,-,N/A,,Mostly Cloudy,0,2013-10-03 09:53:00
2:53 AM,32.0,28.0,85,29.85,10.0,NE,3.5,-,N/A,,Mostly Cloudy,40,2013-10-03 10:53:00
3:53 AM,33.1,28.9,85,29.83,10.0,ENE,3.5,-,N/A,,Mostly Cloudy,60,2013-10-03 11:53:00
4:53 AM,34.0,30.0,85,29.82,10.0,Calm,Calm,-,N/A,,Mostly Cloudy,0,2013-10-03 12:53:00
5:53 AM,33.1,30.0,89,29.81,10.0,NE,3.5,-,N/A,,Mostly Cloudy,50,2013-10-03 13:53:00
6:53 AM,34.0,30.0,85,29.80,10.0,NNE,5.8,-,N/A,,Mostly Cloudy,30,2013-10-03 14:53:00
7:53 AM,34.0,28.9,82,29.79,10.0,NNE,5.8,-,N/A,,Mostly Cloudy,20,2013-10-03 15:53:00
8:53 AM,34.0,30.0,85,29.79,10.0,Calm,Calm,-,N/A,,Mostly Cloudy,0,2013-10-03 16:53:00
9:53 AM,37.9,30.9,76,29.78,10.0,Calm,Calm,-,N/A,,Mostly Cloudy,0,2013-10-03 17:53:00
10:53 AM,39.9,30.0,68,29.77,10.0,ENE,4.6,-,N/A,,Mostly Cloudy,60,2013-10-03 18:53:00
11:53 AM,46.0,30.0,54,29.75,10.0,East,5.8,-,N/A,,Mostly Cloudy,80,2013-10-03 19:53:00
12:53 PM,48.9,30.9,50,29.73,10.0,NNE,3.5,-,N/A,,Mostly Cloudy,30,2013-10-03 20:53:00
1:53 PM,50.0,30.9,48,29.72,10.0,SE,5.8,-,N/A,,Mostly Cloudy,130,2013-10-03 21:53:00
2:53 PM,51.1,30.9,46,29.70,10.0,Calm,Calm,-,N/A,,Mostly Cloudy,0,2013-10-03 22:53:00
3:53 PM,52.0,30.9,45,29.68,10.0,North,4.6,-,N/A,,Mostly Cloudy,10,2013-10-03 23:53:00
4:53 PM,51.1,32.0,48,29.66,10.0,Calm,Calm,-,N/A,,Mostly Cloudy,0,2013-10-04 00:53:00
5:53 PM,50.0,33.1,52,29.64,10.0,Calm,Calm,-,N/A,,Mostly Cloudy,0,2013-10-04 01:53:00
6:53 PM,48.0,33.1,56,29.63,10.0,SSW,4.6,-,N/A,,Mostly Cloudy,200,2013-10-04 02:53:00
8:53 PM,44.1,33.1,65,29.63,10.0,WSW,3.5,-,N/A,,Mostly Cloudy,240,2013-10-04 04:53:00
9:53 PM,43.0,33.1,68,29.63,10.0,Calm,Calm,-,N/A,,Mostly Cloudy,0,2013-10-04 05:53:00
10:53 PM,37.0,32.0,82,29.62,10.0,Calm,Calm,-,N/A,,Mostly Cloudy,0,2013-10-04 06:53:00
11:53 PM,37.0,33.1,86,29.61,10.0,NNW,4.6,-,N/A,,Scattered Clouds,340,2013-10-04 07:53:00